Regional Weather Roundup
Issued by NWS

Home | Current Version | Previous Version | Graphics & Text | Print | Product List | Glossary On
Versions: 1 2 3 4 5 6 7 8 9 10 11 12 13 14 15 16 17 18 19 20 21 22 23 24 25 26 27 28 29 30 31 32 33 34 35 36 37 38 39 40 41 42 43 44 45 46 47 48 49
000
ASUS45 KTFX 041010
RWRMT
MONTANA REGIONAL WEATHER ROUNDUP
NATIONAL WEATHER SERVICE GREAT FALLS MT
400 AM MDT TUE AUG 04 2015

NOTE: "FAIR" INDICATES FEW OR NO CLOUDS BELOW 12000 FEET WITH NO
SIGNIFICANT WEATHER AND/OR OBSTRUCTIONS TO VISIBILITY.

MTZ001>007-043-041100-
WEST OF THE DIVIDE

CITY           SKY/WX    TMP DP  RH WIND       PRES   REMARKS
KALISPELL      CLOUDY    66  55  67 CALM      29.89S
MISSOULA       CLOUDY    70  42  36 CALM      29.93S
BUTTE          CLOUDY    63  50  62 S9        30.08S
MULLAN PASS    CLOUDY    60  40  47 SW6       30.08S
DEER LODGE       N/A     63  46  55 CALM      30.04R
EUREKA           N/A     68  54  60 SW5       29.89S
HAMILTON         N/A     66  45  45 SW1       29.96R
LIBBY            N/A     64  54  68 S6        29.89S
PLAINS           N/A     70  46  42 CALM      29.91R
$$

MTZ008-052>055-041100-
SOUTHWEST MONTANA

CITY           SKY/WX    TMP DP  RH WIND       PRES   REMARKS
BOZEMAN        CLOUDY    61  55  81 CALM      30.01R
DILLON         CLOUDY    63  50  62 CALM      30.07R
W YELLOWSTONE  CLOUDY    54  50  87 S9        30.16S
$$

MTZ009-010-012-014-046-048-049-054-041100-
EAST SLOPES AND CENTRAL MONTANA

CITY           SKY/WX    TMP DP  RH WIND       PRES   REMARKS
CUT BANK       CLOUDY    71  38  29 W8        29.85R
GREAT FALLS    CLOUDY    73  41  31 SW12      29.85R
MALMSTROM AFB  CLOUDY    74  44  34 SW16      29.85R
HELENA         CLOUDY    79  43  27 SW8       29.94F
CONRAD           N/A     63  56  78 CALM      29.89R
$$

MTZ011-013-016-021-045-047-050-051-041100-
NORTH CENTRAL MONTANA

CITY           SKY/WX    TMP DP  RH WIND       PRES   REMARKS
HAVRE          PTCLDY    67  51  56 NE12      29.76F
LEWISTOWN      PTCLDY    63  47  55 S7        29.90S
CHINOOK          N/A     64  52  63 E14       29.79F
FORT BENTON      N/A     72  48  43 SE3       29.81S
$$

MTZ017>020-022>027-061-062-041100-
NORTHEAST MONTANA

CITY           SKY/WX    TMP DP  RH WIND       PRES   REMARKS
GLASGOW        CLEAR     66  47  50 E18       29.86F
JORDAN           N/A     67  49  52 E10       29.85F
SIDNEY         PTCLDY    59  46  63 N6        29.93F
WOLF POINT     PTCLDY    61  48  62 NE10      29.91S
MALTA            N/A     67  48  50 CALM      29.82S
POPLAR           N/A     59  50  72 N6        29.92F
$$

MTZ028>42-056>058-041100-
SOUTHCENTRAL AND SOUTHEAST MONTANA

CITY           SKY/WX    TMP DP  RH WIND       PRES   REMARKS
BAKER          PTCLDY    60  51  72 E10       29.94S
BILLINGS       PTCLDY    71  47  42 SW9       29.89R
LIVINGSTON     MOCLDY    70  48  45 W16       29.97S
MILES CITY     PTCLDY    68  52  56 E8        29.87F
EKALAKA          N/A     63  53  69 SE8       29.92F
FORSYTH          N/A     70  55  60 SE9       29.85R
LAUREL           N/A     71  46  40 SW1       29.89R
$$

REGIONAL REPORTS...DAKOTAS

CITY           SKY/WX    TMP DP  RH WIND       PRES   REMARKS
WILLISTON      PTCLDY    60  50  69 NE3       29.96S
MINOT          CLEAR     54  49  83 SW3       29.98S
DICKINSON      PTCLDY    53  48  83 E9        29.95F
BEACH          FAIR      55  54  94 SE8       29.95S
CROSBY         FAIR      50  50 100 SE5       30.00R
BISMARCK       CLEAR     54  49  83 NE7       29.98S
GRAND FORKS    CLEAR     50  47  89 NW6       29.96R
FARGO          CLEAR     53  47  79 SW3       29.95S
RAPID CITY     MOCLDY    64  58  80 SE6       29.94R
$$

REGIONAL REPORTS...WYOMING/IDAHO/WASHINGTON

CITY           SKY/WX    TMP DP  RH WIND       PRES   REMARKS
GILLETTE       PTCLDY    59  49  69 S3        29.94F
SHERIDAN       MOCLDY    70  48  45 SE10      29.90S
BUFFALO WY     MOCLDY    65  47  52 SW3       29.98F
CODY           CLOUDY    63  52  67 CALM      29.99R
YELLOWSTONE LA   N/A     48  47  96 CALM      30.24S
IDAHO FALLS    CLOUDY    60  55  83 N7        30.10S
SALMON         MOCLDY    63  46  55 CALM      29.98R
BOISE          LGT RAIN  72  52  49 N21G26    29.96F
SPOKANE        PTCLDY    70  46  42 S6        29.87S
$$

REGIONAL REPORTS...ALBERTA

CITY           SKY/WX    TMP DP  RH WIND       PRES   REMARKS
EDMONTON       MOCLDY    64  59  82 SE9       29.73S
CALGARY        MOCLDY    72  45  37 NW8       29.82S
LETHBRIDGE     MOCLDY    73  50  43 W29G35    29.77R
MEDICINE HAT   CLEAR     77  46  33 S18G25    29.70S
WATERTON GATE    N/A     72  41  33 SW16G24     N/A
MILK RIVER       N/A     70  46  43 SW8         N/A
$$

REGIONAL REPORTS...SASKATCHEWAN

CITY           SKY/WX    TMP DP  RH WIND       PRES   REMARKS
SWIFT CURRENT  CLEAR     59  52  77 SE10      29.90S
REGINA         PTCLDY    57  48  72 SE10      29.98S
SASKATOON      PTCLDY    63  52  67 SE8       29.95F
CYPRESS HILLS    N/A     61  45  55 SE12G18     N/A
VAL MARIE        N/A     64  46  52 SE14G20     N/A
ROCKGLEN         N/A     55  48  76 SE9         N/A
ASSINIBOIA       N/A     66  57  72 SE14G20     N/A
$$


USA.gov is the U.S. government's official web portal to all federal, state and local government web resources and services.